Regional Weather Roundup
Issued by NWS Huntsville, AL

Home | Current Version | Previous Version | Text Only | Print | Product List | Glossary On
Versions: 1 2 3 4 5 6 7 8 9 10 11 12 13 14 15 16 17 18 19 20 21 22 23 24 25 26 27 28 29 30 31 32 33 34 35 36 37 38 39 40 41 42 43 44 45 46 47 48 49 50
000
ASUS44 KHUN 210110
RWRHUN

WEATHER ROUNDUP FOR THE TENNESSEE VALLEY
NATIONAL WEATHER SERVICE HUNTSVILLE AL
700 PM CST SAT JAN 20 2018

ALZ001>004-210200-
NORTHWEST ALABAMA

CITY           SKY/WX    TMP DP  RH WIND       PRES   REMARKS
COURTLAND HCN    N/A     48 N/A N/A CALM        N/A
RUSSELLVILLE     N/A     48 N/A N/A MISG        N/A
SHOALS AIRPORT FAIR      54  35  48 S8        30.19F
SHOALS TVA RES   N/A     55 N/A N/A MISG        N/A
$$

ALZ005>007-016-210200-
NORTH CENTRAL ALABAMA

CITY           SKY/WX    TMP DP  RH WIND       PRES   REMARKS
CULLMAN AG STN   N/A     55 N/A N/A CALM        N/A
DECATUR AP     FAIR      50  32  50 S3        30.22R
HUNTSVILLE AP  FAIR      53  38  56 S5        30.21R
MERIDIANVILLE  FAIR      46  34  61 SW3       30.21R
REDSTONE ARSN  FAIR      52  36  54 CALM      30.21R
VINEMONT AP    FAIR      52  37  55 S5        30.23S
$$

ALZ008>010-210200-
NORTHEAST ALABAMA

CITY           SKY/WX    TMP DP  RH WIND       PRES   REMARKS
ALBERTVILLE    FAIR      52  41  66 S6        30.22R
FORT PAYNE     FAIR      41  34  75 MISG      30.23R
SCOTTSBORO AP  FAIR      45  36  70 CALM      30.22S
SCOTTSBORO HCN   N/A     41 N/A N/A MISG        N/A
VALLEY HEAD      N/A     41 N/A N/A MISG        N/A
$$

TNZ076-096-097-210200-
SOUTHEASTERN MIDDLE TENNESSEE

CITY           SKY/WX    TMP DP  RH WIND       PRES   REMARKS
TULLAHOMA      CLEAR     41  32  70 CALM      30.20R
WINCHESTER     CLEAR     45  34  65 SE3       30.22R
$$

...SURROUNDING SITES...

CITY           SKY/WX    TMP DP  RH WIND       PRES   REMARKS
ATLANTA        FAIR      51  38  60 W6        30.24R
ANNISTON       FAIR      44  36  73 CALM      30.25R
BIRMINGHAM     FAIR      50  37  61 CALM      30.26R
CHATTANOOGA    FAIR      45  34  65 CALM      30.23R
CORINTH        MOCLDY    59  39  47 S5        30.15R
DALTON         FAIR      41  34  75 CALM      30.25S
GADSDEN        FAIR      45  36  70 CALM      30.25R
GOLDEN TRNGL   FAIR      57  41  55 SE9       30.20R
HALEYVILLE     FAIR      53  36  52 S3        30.22R
JACKSON TN     CLOUDY    52  49  89 CALM      30.13R
MEMPHIS        CLOUDY    55  51  86 S7        30.12R
NASHVILLE      MOCLDY    54  35  48 S7        30.17S
OXFORD MS      CLOUDY    57  48  72 SE6       30.15S
ROME           FAIR      44  37  76 W3        30.23S
SAVANNAH       CLOUDY    59  41  51 S5        30.15S
SELMER         CLOUDY    59  41  51 S10       30.14S
TUPELO         CLOUDY    59  37  44 SE9       30.17R
TUSCALOOSA     FAIR      55  39  54 CALM      30.23R
$$

...GULF COAST WEATHER...

CITY           SKY/WX    TMP DP  RH WIND       PRES   REMARKS
GULFPORT       FAIR      59  50  72 E13       30.22F
PASCAGOULA     FAIR      53  45  74 SE3       30.25S
MOBILE         FAIR      53  44  71 SE7       30.26R
GULF SHORES    MOCLDY    48  45  90 E9        30.26R
PENSACOLA      MOCLDY    50  45  83 CALM      30.25R
DESTIN         FAIR      56  44  64 CALM      30.26R
PANAMA CITY    DRIZZLE   52  41  66 CALM      30.27R
APPALACHICOLA  FAIR      52  40  63 NE3       30.27R
$$




USA.gov is the U.S. government's official web portal to all federal, state and local government web resources and services.